Location: Newark
(54.8972°N, 99.8189°W)
Time: 23:39:17
(UTC+00:00)

Transit 2A - Pass Details

Date: 21 November 2019
Orbit: 602 x 957 km, 66.7° (Epoch: 06 December)

Event Time Altitude Azimuth Distance (km) Brightness Sun altitude
Rises 00:57:48 0° 316° (NW) 2,900 9.6 -20.8°
Reaches altitude 10° 01:00:16 10° 325° (NW) 1,971 8.5 -21.1°
Enters shadow 01:03:44 33° 16° (NNE) 1,034 6.5 -21.6°
